QPF
0.00 0.00 0.00 0.00 0.00 0.00 0.00 0.00 0.00 0.00 0.00 0.00 0.00 0.00 0.00 0.00 0.00 0.00 0.00 0.00 0.00 0.00 0.00 0.00 0.00 0.00 0.00 0.00 0.00 0.00 0.00 0.00 0.00 0.00 0.00 0.00 0.00 0.00 0.00 0.00 0.00 0.01 0.01 0.01
0.00 0.00 0.00 0.00 0.00 0.00 0.00 0.00 0.00 0.00 0.00 0.00 0.00 0.00 0.00 0.00 0.00 0.00 0.00 0.00 0.00 0.00 0.00 0.00 0.00 0.00 0.00 0.00 0.00 0.00 0.00 0.00 0.00 0.00 0.00 0.00 0.00 0.00 0.00 0.00 0.00 0.00 0.00 0.00
0.00 0.00 0.00 0.00 0.00 0.00 0.00 0.00 0.00 0.00 0.00 0.00 0.00 0.00 0.00 0.00 0.00 0.00 0.00 0.00 0.00 0.00 0.00 0.00 0.00 0.00 0.00 0.00 0.00 0.00 0.00 0.00 0.00 0.00 0.00 0.00 0.00 0.00 0.00 0.00 0.00 0.00 0.00 0.00
0.00 0.00 0.00 0.00 0.00 0.00 0.00 0.00 0.00 0.00 0.00 0.00 0.00 0.00 0.00 0.00 0.00 0.00 0.00 0.00 0.00 0.00 0.00 0.00 0.00 0.00 0.00 0.00 0.00 0.00 0.00 0.00 0.00 0.00 0.00 0.00 0.00 0.00 0.00 0.00 0.00 0.00 0.00 0.00
0.00 0.00 0.00 0.00 0.00 0.00 0.00 0.00 0.00 0.00 0.00 0.00 0.00 0.00 0.00 0.00 0.00 0.00 0.00 0.00 0.00 0.00 0.00 0.00 0.00 0.00 0.00 0.00 0.00 0.00 0.00 0.00 0.00 0.00 0.00 0.00 0.00 0.00 0.00 0.00 0.00 0.00 0.00 0.00
0.00 0.00 0.00 0.00 0.00 0.00 0.00 0.00 0.00 0.00 0.00 0.00 0.00 0.00 0.00 0.00 0.00 0.00 0.00 0.00 0.00 0.00 0.00 0.00 0.00 0.00 0.00 0.00 0.00 0.00 0.00 0.00 0.00 0.00 0.00 0.00 0.00 0.00 0.00 0.00 0.00 0.00 0.00 0.00
0.00 0.00 0.00 0.00 0.00 0.00 0.00 0.00 0.00 0.00 0.00 0.00 0.00 0.00 0.00 0.00 0.00 0.00 0.00 0.00 0.00 0.00 0.00 0.00 0.00 0.00 0.00 0.00 0.00 0.00 0.00 0.00 0.00 0.00 0.00 0.00 0.00 0.00 0.00 0.00 0.00 0.00 0.00 0.00
0.00 0.00 0.00 0.00 0.00 0.00 0.00 0.00 0.00 0.00 0.00 0.00 0.00 0.00 0.00 0.00 0.00 0.00 0.00 0.00 0.00 0.00 0.00 0.00 0.00 0.00 0.00 0.00 0.00 0.00 0.00 0.00 0.00 0.00 0.00 0.00 0.00 0.00 0.00 0.00 0.00 0.00 0.00 0.00
0.00 0.00 0.00 0.00 0.00 0.00 0.00 0.00 0.00 0.00 0.00 0.00 0.00 0.00 0.00 0.00 0.00 0.00 0.00 0.00 0.00 0.00 0.00 0.00 0.00 0.00 0.00 0.00 0.00 0.00 0.00 0.00 0.00 0.00 0.00 0.00 0.00 0.00 0.00 0.00 0.00 0.00 0.00 0.00
0.00 0.00 0.00 0.00 0.00 0.00 0.00 0.00 0.00 0.00 0.00 0.00 0.00 0.00 0.00 0.00 0.00 0.00 0.00 0.00 0.00 0.00 0.00 0.00 0.00 0.00 0.00 0.00 0.00 0.00 0.00 0.00 0.00 0.00 0.00 0.00 0.00 0.00 0.00 0.00 0.00 0.00 0.00 0.00
0.00 0.00 0.00 0.00 0.00 0.00 0.00 0.00 0.00 0.00 0.00 0.00 0.00 0.00 0.00 0.00 0.00 0.00 0.00 0.00 0.00 0.00 0.00 0.00 0.00 0.00 0.00 0.00 0.00 0.00 0.00 0.00 0.00 0.00 0.00 0.00 0.00 0.00 0.00 0.00 0.00 0.00 0.00 0.00
0.00 0.00 0.00 0.00 0.00 0.00 0.00 0.00 0.00 0.00 0.00 0.00 0.00 0.00 0.00 0.00 0.00 0.00 0.00 0.00 0.00 0.00 0.00 0.00 0.00 0.00 0.00 0.00 0.00 0.00 0.00 0.00 0.00 0.00 0.00 0.00 0.00 0.00 0.00 0.00 0.00 0.00 0.00 0.00
0.00 0.00 0.00 0.00 0.00 0.00 0.00 0.00 0.00 0.00 0.00 0.00 0.00 0.00 0.00 0.00 0.00 0.00 0.00 0.00 0.00 0.00 0.00 0.00 0.00 0.00 0.00 0.00 0.00 0.00 0.00 0.00 0.00 0.00 0.00 0.00 0.00 0.00 0.00 0.00 0.00 0.00 0.00 0.00
0.00 0.00 0.00 0.00 0.00 0.00 0.00 0.00 0.00 0.00 0.00 0.00 0.00 0.00 0.00 0.00 0.00 0.00 0.00 0.00 0.00 0.00 0.00 0.00 0.00 0.00 0.00 0.00 0.00 0.00 0.00 0.00 0.00 0.00 0.00 0.00 0.00 0.00 0.00 0.00 0.00 0.00 0.00 0.00
0.00 0.00 0.00 0.00 0.00 0.00 0.00 0.00 0.00 0.00 0.00 0.00 0.00 0.00 0.00 0.00 0.00 0.00 0.00 0.00 0.00 0.00 0.00 0.00 0.00 0.00 0.00 0.00 0.00 0.00 0.00 0.00 0.00 0.00 0.00 0.00 0.00 0.00 0.00 0.00 0.00 0.00 0.00 0.00
0.00 0.00 0.00 0.00 0.00 0.00 0.00 0.00 0.00 0.00 0.00 0.00 0.00 0.00 0.00 0.00 0.00 0.00 0.00 0.00 0.00 0.00 0.00 0.00 0.00 0.00 0.00 0.00 0.00 0.00 0.00 0.00 0.00 0.00 0.00 0.00 0.00 0.00 0.00 0.00 0.00 0.00 0.00 0.00
0.00 0.00 0.00 0.00 0.00 0.00 0.00 0.00 0.00 0.00 0.00 0.00 0.00 0.00 0.00 0.00 0.00 0.00 0.00 0.00 0.00 0.00 0.00 0.00 0.00 0.00 0.00 0.00 0.00 0.00 0.00 0.00 0.00 0.00 0.00 0.00 0.00 0.00 0.00 0.00 0.00 0.00 0.00 0.00
0.00 0.00 0.00 0.00 0.00 0.00 0.00 0.00 0.00 0.00 0.00 0.00 0.00 0.00 0.00 0.00 0.00 0.00 0.00 0.00 0.00 0.00 0.00 0.00 0.00 0.00 0.00 0.00 0.00 0.00 0.00 0.00 0.00 0.00 0.00 0.00 0.00 0.00 0.00 0.00 0.00 0.00 0.00 0.00
0.00 0.00 0.00 0.00 0.00 0.00 0.00 0.00 0.00 0.00 0.00 0.00 0.00 0.00 0.00 0.00 0.00 0.00 0.00 0.00 0.00 0.00 0.00 0.00 0.00 0.00 0.00 0.00 0.00 0.00 0.00 0.00 0.00 0.00 0.00 0.00 0.00 0.00 0.00 0.00 0.00 0.00 0.00 0.00
0.00 0.00 0.00 0.00 0.00 0.00 0.00 0.00 0.00 0.00 0.00 0.00 0.00 0.00 0.00 0.00 0.00 0.00 0.00 0.00 0.00 0.00 0.00 0.00 0.00 0.00 0.00 0.00 0.00 0.00 0.00 0.00 0.00 0.00 0.00 0.00 0.00 0.00 0.00 0.00 0.00 0.00 0.00 0.00
0.00 0.00 0.00 0.00 0.00 0.00 0.00 0.00 0.00 0.00 0.00 0.00 0.00 0.00 0.00 0.00 0.00 0.00 0.00 0.00 0.00 0.00 0.00 0.00 0.00 0.00 0.00 0.00 0.00 0.00 0.00 0.00 0.00 0.00 0.00 0.00 0.00 0.00 0.00 0.00 0.00 0.00 0.00 0.00
0.00 0.00 0.00 0.00 0.00 0.00 0.00 0.00 0.00 0.00 0.00 0.00 0.00 0.00 0.00 0.00 0.00 0.00 0.00 0.00 0.00 0.00 0.00 0.00 0.00 0.00 0.00 0.00 0.00 0.00 0.00 0.00 0.00 0.00 0.00 0.00 0.00 0.00 0.00 0.00 0.00 0.00 0.00 0.00
0.00 0.00 0.00 0.00 0.00 0.00 0.00 0.00 0.00 0.00 0.00 0.00 0.00 0.00 0.00 0.00 0.00 0.00 0.00 0.00 0.00 0.00 0.00 0.00 0.00 0.00 0.00 0.00 0.00 0.00 0.00 0.00 0.00 0.00 0.00 0.00 0.00 0.00 0.00 0.00 0.00 0.00 0.00 0.00
0.00 0.00 0.00 0.00 0.00 0.00 0.00 0.00 0.00 0.00 0.00 0.00 0.00 0.00 0.00 0.00 0.00 0.00 0.00 0.00 0.00 0.00 0.00 0.00 0.00 0.00 0.00 0.00 0.00 0.00 0.00 0.00 0.00 0.00 0.00 0.00 0.00 0.00 0.00 0.00 0.00 0.00 0.00 0.00
0.00 0.00 0.00 0.00 0.00 0.00 0.00 0.00 0.00 0.00 0.00 0.00 0.00 0.00 0.00 0.00 0.00 0.00 0.00 0.00 0.00 0.00 0.00 0.00 0.00 0.00 0.00 0.00 0.00 0.00 0.00 0.00 0.00 0.00 0.00 0.00 0.00 0.00 0.00 0.00 0.00 0.00 0.00 0.00
0.00 0.00 0.00 0.00 0.00 0.00 0.00 0.00 0.00 0.00 0.00 0.00 0.00 0.00 0.00 0.00 0.00 0.00 0.00 0.00 0.00 0.00 0.00 0.00 0.00 0.00 0.00 0.00 0.00 0.00 0.00 0.00 0.00 0.00 0.00 0.00 0.00 0.00 0.00 0.00 0.00 0.00 0.00 0.00
0.00 0.00 0.00 0.00 0.00 0.00 0.00 0.00 0.00 0.00 0.00 0.00 0.00 0.00 0.00 0.00 0.00 0.00 0.00 0.00 0.00 0.00 0.00 0.00 0.00 0.00 0.00 0.00 0.00 0.00 0.00 0.00 0.00 0.00 0.00 0.00 0.00 0.00 0.00 0.00 0.00 0.00 0.00 0.00
MSLP
1025.55 1026.00 1026.43 1026.82 1027.13 1027.36 1027.47 1027.45 1027.29 1027.00 1026.59 1026.09 1025.54 1024.97 1024.41 1023.90 1023.42 1023.00 1022.62 1022.26 1021.91 1021.56 1021.20 1020.82 1020.43 1020.04 1019.65 1019.28 1018.92 1018.59 1018.28 1017.99 1017.71 1017.45 1017.20 1016.97 1016.75 1016.54 1016.35 1016.16 1015.97 1015.78 1015.58 1015.37
1025.69 1026.04 1026.32 1026.54 1026.69 1026.75 1026.72 1026.60 1026.40 1026.11 1025.77 1025.37 1024.95 1024.51 1024.08 1023.67 1023.27 1022.89 1022.52 1022.16 1021.81 1021.46 1021.12 1020.79 1020.47 1020.17 1019.89 1019.63 1019.39 1019.15 1018.92 1018.69 1018.45 1018.20 1017.96 1017.71 1017.48 1017.26 1017.05 1016.85 1016.65 1016.44 1016.23 1015.99
1025.84 1026.04 1026.15 1026.18 1026.15 1026.05 1025.90 1025.71 1025.48 1025.24 1024.97 1024.70 1024.41 1024.12 1023.81 1023.49 1023.16 1022.81 1022.44 1022.06 1021.68 1021.31 1020.96 1020.65 1020.38 1020.15 1019.96 1019.80 1019.67 1019.53 1019.39 1019.23 1019.04 1018.84 1018.62 1018.39 1018.17 1017.96 1017.75 1017.55 1017.35 1017.14 1016.91 1016.66
1025.95 1025.97 1025.90 1025.75 1025.54 1025.30 1025.06 1024.81 1024.59 1024.40 1024.23 1024.08 1023.93 1023.78 1023.59 1023.37 1023.10 1022.77 1022.40 1021.99 1021.57 1021.16 1020.79 1020.47 1020.22 1020.03 1019.90 1019.82 1019.77 1019.72 1019.66 1019.58 1019.46 1019.31 1019.14 1018.96 1018.78 1018.59 1018.41 1018.24 1018.05 1017.84 1017.61 1017.34
1025.95 1025.79 1025.53 1025.21 1024.86 1024.51 1024.19 1023.93 1023.73 1023.60 1023.53 1023.50 1023.49 1023.46 1023.39 1023.26 1023.04 1022.75 1022.37 1021.95 1021.49 1021.05 1020.64 1020.31 1020.05 1019.88 1019.78 1019.75 1019.76 1019.77 1019.78 1019.77 1019.72 1019.64 1019.54 1019.41 1019.29 1019.15 1019.02 1018.87 1018.71 1018.51 1018.27 1017.99
1025.73 1025.40 1024.99 1024.55 1024.09 1023.67 1023.31 1023.04 1022.88 1022.81 1022.84 1022.92 1023.03 1023.12 1023.16 1023.11 1022.96 1022.70 1022.35 1021.92 1021.46 1020.99 1020.57 1020.21 1019.94 1019.76 1019.67 1019.66 1019.69 1019.75 1019.80 1019.85 1019.86 1019.85 1019.82 1019.76 1019.70 1019.63 1019.54 1019.43 1019.29 1019.11 1018.86 1018.56
1025.22 1024.76 1024.25 1023.72 1023.21 1022.76 1022.40 1022.16 1022.04 1022.04 1022.14 1022.32 1022.53 1022.71 1022.84 1022.88 1022.80 1022.61 1022.30 1021.90 1021.45 1020.99 1020.56 1020.20 1019.91 1019.72 1019.62 1019.61 1019.64 1019.72 1019.80 1019.88 1019.95 1020.00 1020.03 1020.04 1020.04 1020.02 1019.98 1019.91 1019.79 1019.61 1019.36 1019.03
1024.38 1023.86 1023.30 1022.74 1022.23 1021.79 1021.47 1021.28 1021.22 1021.28 1021.45 1021.70 1021.98 1022.24 1022.45 1022.56 1022.56 1022.44 1022.20 1021.86 1021.46 1021.04 1020.64 1020.28 1019.99 1019.79 1019.68 1019.64 1019.67 1019.74 1019.83 1019.93 1020.03 1020.12 1020.20 1020.27 1020.33 1020.36 1020.35 1020.31 1020.20 1020.02 1019.76 1019.41
1023.26 1022.72 1022.17 1021.65 1021.19 1020.82 1020.57 1020.45 1020.45 1020.57 1020.80 1021.09 1021.42 1021.73 1021.99 1022.17 1022.25 1022.20 1022.04 1021.79 1021.47 1021.11 1020.76 1020.43 1020.16 1019.96 1019.83 1019.77 1019.78 1019.83 1019.91 1020.02 1020.14 1020.26 1020.38 1020.49 1020.58 1020.64 1020.67 1020.63 1020.53 1020.34 1020.07 1019.71
1021.93 1021.43 1020.95 1020.52 1020.16 1019.90 1019.75 1019.71 1019.79 1019.96 1020.22 1020.54 1020.89 1021.23 1021.52 1021.75 1021.88 1021.92 1021.85 1021.69 1021.46 1021.19 1020.90 1020.62 1020.37 1020.18 1020.04 1019.96 1019.95 1019.98 1020.05 1020.15 1020.28 1020.41 1020.55 1020.69 1020.81 1020.89 1020.93 1020.90 1020.80 1020.61 1020.33 1019.97
1020.52 1020.10 1019.73 1019.43 1019.22 1019.10 1019.07 1019.12 1019.27 1019.49 1019.78 1020.11 1020.45 1020.79 1021.09 1021.35 1021.53 1021.62 1021.63 1021.56 1021.42 1021.23 1021.02 1020.79 1020.58 1020.40 1020.26 1020.17 1020.13 1020.14 1020.19 1020.29 1020.41 1020.56 1020.72 1020.87 1021.00 1021.11 1021.15 1021.13 1021.03 1020.84 1020.57 1020.22
1019.14 1018.83 1018.60 1018.46 1018.40 1018.43 1018.53 1018.70 1018.92 1019.18 1019.48 1019.80 1020.13 1020.45 1020.75 1021.00 1021.21 1021.35 1021.42 1021.42 1021.36 1021.24 1021.09 1020.91 1020.73 1020.57 1020.43 1020.32 1020.27 1020.26 1020.30 1020.38 1020.51 1020.66 1020.83 1021.00 1021.15 1021.26 1021.32 1021.31 1021.22 1021.05 1020.79 1020.48
1017.86 1017.67 1017.58 1017.60 1017.71 1017.89 1018.13 1018.40 1018.69 1019.00 1019.31 1019.62 1019.92 1020.22 1020.49 1020.73 1020.94 1021.10 1021.21 1021.26 1021.25 1021.19 1021.09 1020.95 1020.79 1020.64 1020.50 1020.38 1020.31 1020.29 1020.32 1020.40 1020.53 1020.69 1020.87 1021.05 1021.22 1021.34 1021.42 1021.43 1021.36 1021.22 1021.01 1020.74
1016.71 1016.63 1016.68 1016.84 1017.10 1017.43 1017.78 1018.16 1018.52 1018.87 1019.19 1019.50 1019.78 1020.04 1020.29 1020.51 1020.71 1020.88 1021.00 1021.08 1021.11 1021.08 1021.01 1020.89 1020.75 1020.60 1020.46 1020.34 1020.26 1020.22 1020.25 1020.33 1020.46 1020.62 1020.82 1021.01 1021.19 1021.34 1021.44 1021.48 1021.45 1021.35 1021.20 1020.99
1015.66 1015.67 1015.84 1016.13 1016.51 1016.96 1017.42 1017.88 1018.31 1018.70 1019.04 1019.35 1019.62 1019.87 1020.09 1020.30 1020.49 1020.65 1020.78 1020.87 1020.92 1020.91 1020.85 1020.75 1020.62 1020.47 1020.33 1020.20 1020.11 1020.08 1020.09 1020.17 1020.30 1020.48 1020.68 1020.88 1021.08 1021.25 1021.37 1021.44 1021.45 1021.41 1021.32 1021.19
1014.68 1014.77 1015.02 1015.40 1015.88 1016.41 1016.96 1017.48 1017.97 1018.40 1018.78 1019.09 1019.37 1019.61 1019.83 1020.03 1020.22 1020.39 1020.52 1020.62 1020.68 1020.68 1020.64 1020.55 1020.43 1020.28 1020.14 1020.01 1019.93 1019.89 1019.90 1019.98 1020.11 1020.28 1020.48 1020.69 1020.89 1021.06 1021.20 1021.30 1021.35 1021.36 1021.34 1021.29
1013.76 1013.89 1014.20 1014.63 1015.17 1015.76 1016.36 1016.93 1017.46 1017.93 1018.33 1018.67 1018.97 1019.23 1019.46 1019.67 1019.87 1020.04 1020.19 1020.31 1020.38 1020.40 1020.38 1020.31 1020.20 1020.08 1019.94 1019.83 1019.75 1019.71 1019.72 1019.79 1019.91 1020.07 1020.25 1020.45 1020.64 1020.81 1020.96 1021.07 1021.15 1021.20 1021.23 1021.25
1012.94 1013.08 1013.40 1013.85 1014.40 1015.01 1015.63 1016.23 1016.78 1017.27 1017.70 1018.07 1018.39 1018.68 1018.93 1019.17 1019.40 1019.60 1019.78 1019.92 1020.02 1020.08 1020.09 1020.05 1019.98 1019.88 1019.77 1019.68 1019.61 1019.58 1019.59 1019.65 1019.75 1019.88 1020.04 1020.20 1020.36 1020.51 1020.64 1020.75 1020.84 1020.91 1020.99 1021.07
1012.28 1012.41 1012.71 1013.14 1013.67 1014.26 1014.86 1015.44 1015.99 1016.49 1016.93 1017.32 1017.67 1017.98 1018.27 1018.55 1018.80 1019.04 1019.26 1019.45 1019.59 1019.70 1019.76 1019.77 1019.74 1019.69 1019.63 1019.57 1019.52 1019.50 1019.52 1019.56 1019.63 1019.73 1019.84 1019.95 1020.07 1020.17 1020.26 1020.35 1020.43 1020.51 1020.61 1020.72
1011.88 1011.98 1012.23 1012.61 1013.08 1013.60 1014.15 1014.69 1015.21 1015.69 1016.12 1016.52 1016.87 1017.21 1017.52 1017.82 1018.12 1018.40 1018.66 1018.89 1019.09 1019.25 1019.37 1019.45 1019.49 1019.50 1019.49 1019.47 1019.46 1019.46 1019.47 1019.50 1019.54 1019.59 1019.65 1019.70 1019.75 1019.80 1019.84 1019.88 1019.93 1020.00 1020.10 1020.23
1011.84 1011.88 1012.06 1012.35 1012.73 1013.16 1013.63 1014.09 1014.55 1014.98 1015.37 1015.75 1016.09 1016.43 1016.75 1017.07 1017.38 1017.69 1017.98 1018.26 1018.51 1018.73 1018.91 1019.06 1019.16 1019.24 1019.30 1019.33 1019.36 1019.38 1019.40 1019.41 1019.43 1019.43 1019.43 1019.43 1019.41 1019.39 1019.37 1019.36 1019.38 1019.42 1019.50 1019.63
1012.17 1012.14 1012.23 1012.43 1012.69 1013.02 1013.37 1013.74 1014.11 1014.46 1014.79 1015.11 1015.42 1015.73 1016.03 1016.34 1016.65 1016.96 1017.28 1017.58 1017.86 1018.13 1018.36 1018.57 1018.74 1018.88 1018.99 1019.08 1019.15 1019.20 1019.23 1019.24 1019.23 1019.20 1019.15 1019.09 1019.01 1018.93 1018.86 1018.80 1018.77 1018.78 1018.84 1018.96
1012.84 1012.74 1012.74 1012.83 1012.98 1013.18 1013.42 1013.67 1013.93 1014.19 1014.43 1014.68 1014.93 1015.17 1015.43 1015.70 1015.98 1016.27 1016.57 1016.87 1017.17 1017.45 1017.72 1017.96 1018.18 1018.38 1018.54 1018.68 1018.78 1018.86 1018.90 1018.92 1018.90 1018.85 1018.77 1018.66 1018.54 1018.42 1018.30 1018.20 1018.13 1018.11 1018.15 1018.25
1013.73 1013.57 1013.49 1013.47 1013.52 1013.61 1013.73 1013.86 1014.01 1014.17 1014.32 1014.48 1014.64 1014.81 1014.99 1015.20 1015.42 1015.66 1015.91 1016.18 1016.46 1016.74 1017.01 1017.27 1017.51 1017.73 1017.93 1018.10 1018.24 1018.34 1018.40 1018.43 1018.41 1018.35 1018.26 1018.14 1018.00 1017.84 1017.70 1017.57 1017.48 1017.44 1017.45 1017.53
1014.67 1014.47 1014.32 1014.23 1014.19 1014.18 1014.20 1014.24 1014.30 1014.35 1014.41 1014.48 1014.55 1014.63 1014.73 1014.85 1014.99 1015.16 1015.34 1015.55 1015.78 1016.02 1016.26 1016.51 1016.75 1016.98 1017.19 1017.37 1017.53 1017.66 1017.74 1017.78 1017.78 1017.73 1017.64 1017.52 1017.38 1017.22 1017.07 1016.93 1016.83 1016.77 1016.77 1016.82
1015.49 1015.26 1015.08 1014.94 1014.84 1014.78 1014.73 1014.70 1014.68 1014.66 1014.64 1014.63 1014.62 1014.62 1014.63 1014.66 1014.71 1014.79 1014.89 1015.02 1015.18 1015.35 1015.54 1015.75 1015.96 1016.17 1016.37 1016.56 1016.72 1016.86 1016.96 1017.02 1017.03 1017.01 1016.94 1016.84 1016.71 1016.57 1016.43 1016.29 1016.19 1016.12 1016.11 1016.14
1016.01 1015.79 1015.61 1015.46 1015.35 1015.25 1015.18 1015.11 1015.05 1014.99 1014.92 1014.85 1014.78 1014.71 1014.64 1014.59 1014.56 1014.55 1014.56 1014.61 1014.68 1014.78 1014.91 1015.05 1015.22 1015.39 1015.57 1015.74 1015.89 1016.03 1016.13 1016.20 1016.24 1016.24 1016.19 1016.12 1016.02 1015.90 1015.78 1015.66 1015.56 1015.49 1015.47 1015.49
Thickness
5657 5657 5652 5648 5644 5639 5630 5620 5611 5616 5615 5618 5620 5619 5618 5618 5618 5620 5621 5622 5622 5622 5622 5623 5623 5623 5624 5624 5625 5627 5627 5628 5628 5629 5630 5631 5631 5632 5632 5633 5633 5633 5634 5635
5660 5661 5656 5651 5650 5646 5640 5631 5625 5624 5622 5630 5629 5626 5624 5623 5623 5622 5623 5625 5626 5627 5628 5628 5627 5627 5626 5627 5627 5627 5627 5626 5627 5627 5627 5626 5626 5626 5625 5625 5625 5625 5626 5626
5652 5659 5654 5649 5656 5652 5649 5645 5638 5630 5633 5639 5635 5632 5630 5629 5628 5627 5628 5630 5631 5631 5632 5633 5633 5632 5631 5630 5630 5629 5627 5626 5625 5625 5623 5622 5622 5620 5619 5617 5617 5616 5616 5616
5652 5655 5652 5669 5677 5669 5660 5658 5651 5648 5646 5645 5641 5640 5639 5637 5634 5633 5634 5635 5636 5637 5638 5639 5639 5638 5637 5635 5633 5631 5629 5627 5625 5623 5621 5620 5618 5616 5614 5613 5611 5609 5608 5607
5652 5653 5658 5676 5679 5673 5664 5662 5665 5657 5655 5653 5649 5644 5640 5644 5643 5641 5641 5641 5641 5642 5643 5643 5643 5643 5641 5639 5637 5634 5631 5628 5625 5623 5620 5618 5615 5613 5611 5609 5606 5604 5602 5600
5657 5663 5665 5685 5692 5687 5676 5665 5677 5669 5662 5656 5648 5635 5638 5650 5650 5648 5648 5647 5647 5647 5647 5647 5647 5647 5645 5642 5640 5637 5634 5631 5627 5624 5620 5617 5614 5611 5609 5606 5603 5600 5597 5594
5662 5663 5674 5696 5695 5689 5665 5674 5688 5679 5670 5660 5652 5649 5652 5655 5654 5653 5652 5652 5652 5650 5649 5650 5650 5650 5647 5645 5643 5641 5638 5634 5629 5625 5621 5617 5614 5611 5608 5604 5601 5597 5594 5591
5663 5665 5677 5703 5696 5689 5691 5698 5693 5686 5679 5669 5664 5662 5660 5659 5658 5657 5655 5655 5654 5652 5652 5652 5652 5651 5649 5647 5647 5645 5641 5636 5631 5626 5623 5619 5614 5610 5607 5603 5600 5595 5592 5589
5686 5697 5711 5710 5711 5713 5709 5702 5697 5691 5685 5678 5671 5667 5666 5664 5662 5659 5658 5656 5655 5654 5653 5654 5654 5653 5651 5651 5650 5647 5643 5637 5632 5627 5623 5618 5615 5610 5606 5603 5599 5594 5590 5587
5694 5706 5712 5714 5714 5716 5711 5708 5704 5698 5692 5684 5678 5674 5670 5666 5663 5661 5659 5658 5657 5656 5655 5655 5655 5655 5654 5654 5653 5650 5644 5639 5634 5629 5624 5619 5615 5611 5607 5603 5598 5594 5591 5587
5701 5713 5717 5720 5718 5718 5714 5711 5706 5701 5696 5690 5684 5679 5674 5668 5666 5664 5662 5660 5658 5657 5656 5656 5657 5657 5657 5656 5655 5651 5646 5641 5636 5631 5626 5621 5616 5612 5608 5604 5600 5595 5591 5587
5713 5726 5722 5726 5728 5723 5716 5712 5708 5703 5697 5693 5688 5683 5678 5672 5669 5666 5664 5662 5660 5659 5658 5658 5658 5659 5659 5659 5657 5653 5648 5643 5638 5633 5628 5623 5619 5615 5612 5608 5604 5601 5597 5593
5736 5736 5730 5733 5730 5726 5721 5716 5712 5707 5702 5695 5692 5687 5682 5676 5672 5669 5667 5665 5663 5661 5660 5660 5660 5660 5661 5660 5659 5656 5651 5646 5641 5636 5631 5627 5622 5618 5614 5611 5608 5604 5600 5597
5735 5733 5730 5731 5728 5725 5723 5719 5714 5709 5704 5699 5694 5689 5684 5679 5675 5671 5669 5667 5665 5664 5663 5662 5661 5661 5662 5662 5661 5658 5654 5650 5645 5640 5635 5631 5626 5622 5617 5612 5608 5605 5603 5600
5733 5734 5735 5734 5730 5724 5721 5716 5710 5705 5702 5698 5695 5690 5686 5681 5677 5675 5673 5670 5667 5666 5665 5664 5663 5663 5663 5663 5662 5660 5656 5652 5648 5644 5639 5635 5630 5626 5621 5617 5612 5607 5605 5603
5733 5730 5731 5729 5726 5721 5718 5714 5711 5706 5702 5699 5695 5692 5689 5686 5682 5678 5675 5672 5669 5667 5667 5665 5665 5665 5665 5664 5663 5661 5658 5656 5652 5647 5643 5638 5634 5630 5625 5620 5616 5612 5609 5606
5726 5725 5725 5725 5724 5720 5720 5719 5717 5712 5706 5701 5698 5695 5691 5686 5682 5679 5676 5674 5671 5669 5668 5667 5666 5666 5666 5665 5664 5662 5660 5658 5656 5651 5646 5642 5639 5634 5630 5625 5621 5618 5614 5612
5738 5738 5735 5732 5728 5723 5720 5718 5716 5713 5709 5706 5701 5695 5690 5685 5683 5681 5679 5675 5672 5670 5669 5669 5667 5666 5665 5665 5663 5662 5660 5659 5656 5653 5650 5647 5643 5640 5635 5631 5628 5625 5621 5618
5735 5735 5732 5731 5729 5726 5722 5718 5716 5713 5710 5706 5700 5695 5692 5689 5687 5684 5679 5674 5672 5670 5671 5671 5669 5667 5665 5664 5663 5661 5660 5659 5658 5656 5653 5651 5648 5644 5640 5637 5634 5631 5628 5625
5730 5731 5729 5726 5725 5722 5720 5718 5715 5711 5708 5705 5700 5695 5691 5689 5686 5682 5678 5675 5674 5675 5674 5672 5669 5667 5665 5663 5662 5660 5659 5659 5658 5657 5655 5653 5651 5648 5645 5643 5640 5637 5634 5632
5723 5723 5722 5720 5718 5717 5716 5714 5711 5708 5706 5702 5698 5695 5693 5690 5686 5681 5676 5674 5678 5677 5674 5672 5669 5667 5665 5663 5661 5658 5658 5657 5657 5657 5656 5655 5654 5652 5650 5647 5645 5643 5641 5638
5710 5711 5712 5711 5710 5708 5708 5706 5705 5704 5701 5698 5696 5694 5691 5687 5683 5679 5678 5679 5681 5677 5673 5671 5669 5668 5665 5663 5660 5658 5656 5656 5656 5656 5656 5656 5655 5654 5653 5652 5650 5648 5646 5644
5688 5693 5696 5697 5698 5697 5697 5696 5696 5695 5694 5693 5692 5690 5688 5687 5683 5678 5676 5680 5678 5676 5672 5670 5670 5668 5667 5663 5659 5657 5656 5656 5655 5656 5656 5657 5657 5657 5656 5656 5655 5653 5651 5649
5667 5671 5675 5678 5680 5681 5681 5682 5684 5685 5686 5686 5686 5686 5684 5680 5677 5679 5681 5682 5679 5675 5671 5670 5669 5668 5666 5661 5659 5657 5656 5655 5655 5655 5656 5656 5657 5657 5658 5658 5658 5657 5655 5653
5643 5648 5651 5655 5656 5657 5660 5665 5669 5671 5673 5674 5675 5676 5675 5676 5676 5677 5675 5673 5673 5671 5669 5668 5668 5666 5662 5659 5657 5656 5655 5655 5654 5654 5655 5655 5656 5657 5658 5658 5659 5658 5657 5656
5619 5623 5626 5629 5632 5636 5640 5645 5649 5652 5655 5659 5661 5662 5663 5664 5665 5666 5666 5666 5665 5665 5663 5662 5661 5661 5658 5656 5655 5654 5653 5653 5653 5653 5653 5654 5654 5655 5656 5657 5658 5658 5658 5657
5595 5600 5605 5609 5613 5616 5620 5624 5628 5631 5636 5640 5644 5647 5649 5651 5652 5653 5654 5655 5655 5656 5655 5655 5654 5654 5653 5651 5650 5650 5650 5650 5649 5650 5650 5651 5652 5652 5653 5655 5655 5656 5656 5655